Overview Statistics Trail Chart Weather Telemetry Raw packets
 

This is the latest recevied weather packets stored in our database for station/object KB0BDN-13. If no packets are shown the sender has not sent any weather packets the latest 10 day(s).

<< 5 6 7 8 9 10 11 >>
Time Temp. Humidity Pressure Rain* Wind** Luminosity Snow
1788614078 13.89° C 99% 1012.7 hPa 0 mm - - -
1788613298 13.33° C 99% 1012.7 hPa 0 mm - - -
1788613152 12.78° C 99% 1012.7 hPa 0 mm - - -
1788612398 12.78° C 99% 1012.7 hPa 0 mm - - -
1788612251 12.78° C 99% 1012.5 hPa 0 mm - - -
1788611498 12.22° C 99% 1012.5 hPa 0 mm - - -
1788611351 12.22° C 99% 1012.2 hPa 0 mm - - -
1788610598 11.67° C 99% 1012.2 hPa 0 mm - - -
1788610451 11.67° C 99% 1012.1 hPa 0 mm - - -
1788609698 11.67° C 99% 1012.1 hPa 0 mm - - -
1788609551 11.67° C 99% 1011.8 hPa 0 mm - - -
1788608798 11.67° C 98% 1011.8 hPa 0 mm - - -
1788608651 11.67° C 98% 1011.8 hPa 0 mm - - -
1788607898 12.22° C 99% 1011.8 hPa 0 mm - - -
1788607751 12.22° C 99% 1011.7 hPa 0 mm - - -
1788606997 12.22° C 98% 1011.7 hPa 0 mm - - -
1788606851 12.22° C 98% 1011.6 hPa 0 mm - - -
1788606097 12.22° C 99% 1011.6 hPa 0 mm - - -
1788605951 12.22° C 99% 1011.6 hPa 0 mm - - -
1788605197 12.78° C 99% 1011.6 hPa 0 mm - - -
1788605051 12.78° C 99% 1011.6 hPa 0 mm - - -
1788604297 12.78° C 99% 1011.6 hPa 0 mm - - -
1788604151 12.78° C 99% 1011.7 hPa 0 mm - - -
1788603397 12.78° C 99% 1011.7 hPa 0 mm - - -
1788603251 12.78° C 99% 1011.8 hPa 0 mm - - -

* Rain latest hour (hover to see other rain measurements)
** Current wind speed in m/s (hover to see current wind gust speed)